sat.trackr.live / text

‹ back to catalog

STARLINK-34211

NORAD 64255 · 2025-119Y

PAYLOAD ACTIVE UNKNOWN

§ Identity

Operator
Country
US
Launch date
2025-06-03
Launch site
AFETR
Launch vehicle
Mass (kg)
RCS (m²)

Purposes: comms

External: N2YO · Heavens-Above · Gunter

§ Orbital elements

Epoch: 2026-09-19T03:50:33.548928Z

Period
94.27 min
Inclination
42.9994°
Eccentricity
0.0001141
Mean motion
15.27588701 rev/d
Perigee alt
482.2 km
Apogee alt
483.8 km
Semi-major
6,861.2 km
B*
3.6308e-4
RAAN
294.8136°
Arg perigee
227.9252°
Mean anomaly
132.1503°
Rev number
7,375

§ Raw data

STARLINK-342111 64255U 25119Y   26262.16011052  .00009745  00000+0  36308-3 0  99912 64255  42.9994 294.8136 0001141 227.9252 132.1503 15.27588701 73751

JSON: /api/v1/satellites/64255 · /tle

For live sub-satellite position, see the globe view (requires WebGL).

§ Visibility from observer

Set your observer location to see the next 7 days of passes ≥ 10°. The values pass through the URL so the page stays shareable.

No JS? Fill the form by hand. The geolocation button needs JavaScript.